| time (UTC) | temp C | wind direction | speed KPH | gust KPH | rain 1hr cm | rain 24hr cm | rain mn cm | humidity % | barometer mb |
| 20260508231058 | 17 | 227 | 4.8 | 9.7 | 0.00 | 0.00 | 0.00 | 39 | 1006.7 |
| 20260508230554 | 18 | 274 | 1.6 | 9.7 | 0.00 | 0.00 | 0.00 | 38 | 1006.5 |
| 20260508230051 | 17 | 206 | 3.2 | 9.7 | 0.00 | 0.00 | 0.00 | 40 | 1006.6 |
| 20260508225549 | 17 | 207 | 4.8 | 11.3 | 0.00 | 0.00 | 0.00 | 39 | 1006.4 |
| 20260508225045 | 17 | 166 | 4.8 | 4.8 | 0.00 | 0.00 | 0.00 | 35 | 1006.5 |
| 20260508224543 | 18 | 294 | 3.2 | 9.7 | 0.00 | 0.00 | 0.00 | 35 | 1006.6 |
| 20260508224040 | 17 | 300 | 4.8 | 8.0 | 0.00 | 0.00 | 0.00 | 33 | 1006.6 |
| 20260508223538 | 18 | 282 | 3.2 | 12.9 | 0.00 | 0.00 | 0.00 | 33 | 1006.5 |
| 20260508223035 | 18 | 317 | 4.8 | 17.7 | 0.00 | 0.00 | 0.00 | 34 | 1006.7 |
| 20260508222533 | 18 | 270 | 4.8 | 11.3 | 0.00 | 0.00 | 0.00 | 32 | 1006.6 |
| 20260508222029 | 17 | 300 | 4.8 | 14.5 | 0.00 | 0.00 | 0.00 | 33 | 1006.7 |
| 20260508221525 | 17 | 151 | 1.6 | 4.8 | 0.00 | 0.00 | 0.00 | 33 | 1006.7 |
| 20260508221021 | 18 | 224 | 4.8 | 16.1 | 0.00 | 0.00 | 0.00 | 34 | 1006.7 |
| 20260508220518 | 18 | 301 | 8.0 | 11.3 | 0.00 | 0.00 | 0.00 | 33 | 1006.9 |
| 20260508220014 | 17 | 310 | 4.8 | 9.7 | 0.00 | 0.00 | 0.00 | 34 | 1006.7 |
| 20260508215511 | 17 | 326 | 8.0 | 12.9 | 0.00 | 0.00 | 0.00 | 34 | 1006.9 |
| 20260508215008 | 17 | 253 | 4.8 | 8.0 | 0.00 | 0.00 | 0.00 | 35 | 1006.7 |
| 20260508214506 | 18 | 257 | 9.7 | 12.9 | 0.00 | 0.00 | 0.00 | 35 | 1006.8 |
| 20260508214001 | 18 | 270 | 4.8 | 4.8 | 0.00 | 0.00 | 0.00 | 34 | 1006.9 |
| 20260508213500 | 17 | 315 | 1.6 | 3.2 | 0.00 | 0.00 | 0.00 | 35 | 1006.8 |
| 20260508212954 | 17 | 233 | 4.8 | 12.9 | 0.00 | 0.00 | 0.00 | 36 | 1007.1 |
| 20260508212451 | 18 | 173 | 8.0 | 9.7 | 0.00 | 0.00 | 0.00 | 35 | 1006.9 |
| 20260508211948 | 18 | 330 | 3.2 | 11.3 | 0.00 | 0.00 | 0.00 | 36 | 1006.8 |
| 20260508211443 | 17 | 259 | 6.4 | 8.0 | 0.00 | 0.00 | 0.00 | 38 | 1006.9 |
| 20260508210940 | 18 | 157 | 3.2 | 9.7 | 0.00 | 0.00 | 0.00 | 36 | 1007.1 |
| 20260508210437 | 18 | 144 | 3.2 | 11.3 | 0.00 | 0.00 | 0.00 | 35 | 1007.0 |
| 20260508205933 | 18 | 134 | 6.4 | 16.1 | 0.00 | 0.00 | 0.00 | 34 | 1007.2 |
| 20260508205431 | 18 | 231 | 4.8 | 8.0 | 0.00 | 0.00 | 0.00 | 32 | 1007.1 |
| 20260508204927 | 18 | 303 | 3.2 | 9.7 | 0.00 | 0.00 | 0.00 | 34 | 1007.2 |
| 20260508204424 | 19 | 314 | 4.8 | 11.3 | 0.00 | 0.00 | 0.00 | 32 | 1007.2 |
| 20260508203919 | 18 | 304 | 4.8 | 16.1 | 0.00 | 0.00 | 0.00 | 32 | 1007.4 |
| 20260508203416 | 17 | 293 | 8.0 | 11.3 | 0.00 | 0.00 | 0.00 | 31 | 1007.4 |
| 20260508202906 | 18 | 225 | 4.8 | 9.7 | 0.00 | 0.00 | 0.00 | 32 | 1007.4 |
| 20260508202404 | 17 | 239 | 6.4 | 16.1 | 0.00 | 0.00 | 0.00 | 34 | 1007.4 |
| 20260508201901 | 17 | 201 | 8.0 | 17.7 | 0.00 | 0.00 | 0.00 | 34 | 1007.5 |
| 20260508201357 | 18 | 162 | 12.9 | 17.7 | 0.00 | 0.00 | 0.00 | 37 | 1007.5 |
| 20260508200854 | 17 | 270 | 4.8 | 11.3 | 0.00 | 0.00 | 0.00 | 33 | 1007.8 |
| 20260508200350 | 17 | 18 | 4.8 | 20.9 | 0.00 | 0.00 | 0.00 | 32 | 1007.8 |
| 20260508195846 | 18 | 246 | 8.0 | 17.7 | 0.00 | 0.00 | 0.00 | 32 | 1008.1 |
| 20260508195343 | 18 | 264 | 4.8 | 11.3 | 0.00 | 0.00 | 0.00 | 32 | 1007.8 |
| 20260508194839 | 17 | 217 | 4.8 | 11.3 | 0.00 | 0.00 | 0.00 | 32 | 1007.8 |
| 20260508194337 | 17 | 260 | 1.6 | 4.8 | 0.00 | 0.00 | 0.00 | 35 | 1008.1 |
| 20260508193833 | 17 | 170 | 9.7 | 14.5 | 0.00 | 0.00 | 0.00 | 35 | 1008.1 |
| 20260508193330 | 17 | 173 | 1.6 | 9.7 | 0.00 | 0.00 | 0.00 | 34 | 1008.3 |
| 20260508192827 | 17 | 245 | 8.0 | 12.9 | 0.00 | 0.00 | 0.00 | 37 | 1008.4 |
| 20260508192324 | 17 | 205 | 8.0 | 17.7 | 0.00 | 0.00 | 0.00 | 34 | 1008.7 |
| 20260508191821 | 17 | 198 | 6.4 | 14.5 | 0.00 | 0.00 | 0.00 | 32 | 1008.4 |
| 20260508191318 | 18 | 255 | 3.2 | 8.0 | 0.00 | 0.00 | 0.00 | 35 | 1008.7 |
| 20260508190815 | 17 | 260 | 6.4 | 12.9 | 0.00 | 0.00 | 0.00 | 34 | 1008.8 |
| 20260508190311 | 17 | 285 | 4.8 | 20.9 | 0.00 | 0.00 | 0.00 | 33 | 1008.9 |
| 20260508185808 | 17 | 316 | 3.2 | 9.7 | 0.00 | 0.00 | 0.00 | 36 | 1008.9 |
| 20260508185306 | 17 | 353 | 6.4 | 12.9 | 0.00 | 0.00 | 0.00 | 33 | 1009.0 |
| 20260508184756 | 16 | 348 | 8.0 | 17.7 | 0.00 | 0.00 | 0.00 | 35 | 1008.9 |
| 20260508184254 | 17 | 300 | 9.7 | 12.9 | 0.00 | 0.00 | 0.00 | 36 | 1009.1 |
| 20260508183750 | 17 | 328 | 11.3 | 14.5 | 0.00 | 0.00 | 0.00 | 38 | 1009.1 |
| 20260508183246 | 16 | 100 | 1.6 | 16.1 | 0.00 | 0.00 | 0.00 | 38 | 1009.1 |
| 20260508182743 | 16 | 242 | 4.8 | 9.7 | 0.00 | 0.00 | 0.00 | 36 | 1009.2 |
| 20260508182240 | 16 | 297 | 8.0 | 12.9 | 0.00 | 0.00 | 0.00 | 36 | 1009.1 |
| 20260508181735 | 16 | 319 | 3.2 | 12.9 | 0.00 | 0.00 | 0.00 | 36 | 1009.2 |
| 20260508181232 | 16 | 306 | 1.6 | 9.7 | 0.00 | 0.00 | 0.00 | 35 | 1009.1 |
| 20260508180729 | 16 | 330 | 4.8 | 11.3 | 0.00 | 0.00 | 0.00 | 32 | 1009.2 |
| 20260508180226 | 16 | 248 | 8.0 | 14.5 | 0.00 | 0.00 | 0.00 | 35 | 1009.2 |
| 20260508175722 | 16 | 186 | 8.0 | 9.7 | 0.00 | 0.00 | 0.00 | 34 | 1009.4 |
| 20260508175219 | 15 | 164 | 1.6 | 3.2 | 0.00 | 0.00 | 0.00 | 40 | 1009.3 |
| 20260508174718 | 15 | 281 | 8.0 | 12.9 | 0.00 | 0.00 | 0.00 | 38 | 1009.7 |
| 20260508174215 | 16 | 301 | 12.9 | 14.5 | 0.00 | 0.00 | 0.00 | 36 | 1009.8 |
| 20260508173710 | 16 | 263 | 4.8 | 11.3 | 0.00 | 0.00 | 0.00 | 35 | 1010.0 |
| 20260508173206 | 15 | 245 | 6.4 | 9.7 | 0.00 | 0.00 | 0.00 | 39 | 1010.0 |
| 20260508172704 | 15 | 226 | 11.3 | 16.1 | 0.00 | 0.00 | 0.00 | 37 | 1010.1 |
| 20260508172200 | 15 | 165 | 4.8 | 9.7 | 0.00 | 0.00 | 0.00 | 37 | 1010.2 |
| 20260508171657 | 16 | 212 | 1.6 | 12.9 | 0.00 | 0.00 | 0.00 | 38 | 1010.5 |
| 20260508171153 | 15 | 68 | 3.2 | 8.0 | 0.00 | 0.00 | 0.00 | 37 | 1010.3 |
| 20260508170650 | 15 | 227 | 3.2 | 11.3 | 0.00 | 0.00 | 0.00 | 36 | 1010.5 |
| 20260508170148 | 15 | 272 | 6.4 | 16.1 | 0.00 | 0.00 | 0.00 | 39 | 1010.6 |
| 20260508165645 | 15 | 2 | 1.6 | 12.9 | 0.00 | 0.00 | 0.00 | 39 | 1010.6 |
| 20260508165142 | 15 | 276 | 8.0 | 8.0 | 0.00 | 0.00 | 0.00 | 41 | 1010.5 |
| 20260508164638 | 15 | 322 | 12.9 | 14.5 | 0.00 | 0.00 | 0.00 | 39 | 1010.7 |
| 20260508164135 | 15 | 298 | 4.8 | 8.0 | 0.00 | 0.00 | 0.00 | 37 | 1010.7 |
| 20260508163633 | 15 | 295 | 4.8 | 17.7 | 0.00 | 0.00 | 0.00 | 39 | 1010.9 |
| 20260508163130 | 15 | 297 | 9.7 | 17.7 | 0.00 | 0.00 | 0.00 | 36 | 1010.8 |
| 20260508162626 | 15 | 166 | 9.7 | 11.3 | 0.00 | 0.00 | 0.00 | 37 | 1011.0 |
| 20260508162124 | 15 | 205 | 11.3 | 11.3 | 0.00 | 0.00 | 0.00 | 38 | 1011.1 |
| 20260508161620 | 14 | 175 | 8.0 | 12.9 | 0.00 | 0.00 | 0.00 | 38 | 1011.0 |
| 20260508161118 | 15 | 323 | 4.8 | 11.3 | 0.00 | 0.00 | 0.00 | 43 | 1011.1 |
| 20260508160616 | 14 | 182 | 6.4 | 14.5 | 0.00 | 0.00 | 0.00 | 41 | 1011.1 |
| 20260508160113 | 14 | 329 | 8.0 | 14.5 | 0.00 | 0.00 | 0.00 | 40 | 1011.3 |
| 20260508155610 | 14 | 178 | 9.7 | 12.9 | 0.00 | 0.00 | 0.00 | 42 | 1011.1 |
| 20260508155107 | 14 | 27 | 4.8 | 8.0 | 0.00 | 0.00 | 0.00 | 43 | 1011.2 |
| 20260508154604 | 13 | 323 | 8.0 | 11.3 | 0.00 | 0.00 | 0.00 | 47 | 1011.2 |
| 20260508154101 | 13 | 279 | 6.4 | 9.7 | 0.00 | 0.00 | 0.00 | 45 | 1011.3 |
| 20260508153557 | 13 | 262 | 3.2 | 9.7 | 0.00 | 0.00 | 0.00 | 43 | 1011.3 |
| 20260508153054 | 13 | 227 | 3.2 | 9.7 | 0.00 | 0.00 | 0.00 | 44 | 1011.4 |
| 20260508152551 | 13 | 290 | 6.4 | 9.7 | 0.00 | 0.00 | 0.00 | 46 | 1011.4 |
| 20260508152046 | 13 | 324 | 4.8 | 8.0 | 0.00 | 0.00 | 0.00 | 47 | 1011.3 |
| 20260508151543 | 13 | 4 | 1.6 | 8.0 | 0.00 | 0.00 | 0.00 | 44 | 1011.5 |
| 20260508151040 | 13 | 204 | 6.4 | 12.9 | 0.00 | 0.00 | 0.00 | 48 | 1011.6 |
| 20260508150537 | 13 | 165 | 1.6 | 4.8 | 0.00 | 0.00 | 0.00 | 48 | 1011.5 |
| 20260508150033 | 13 | 210 | 4.8 | 8.0 | 0.00 | 0.00 | 0.00 | 47 | 1011.4 |
| 20260508145530 | 13 | 329 | 4.8 | 8.0 | 0.00 | 0.00 | 0.00 | 49 | 1011.4 |
| 20260508145026 | 12 | 157 | 0.0 | 3.2 | 0.00 | 0.00 | 0.00 | 51 | 1011.6 |
| 20260508144524 | 13 | 180 | 4.8 | 8.0 | 0.00 | 0.00 | 0.00 | 51 | 1011.7 |
| 20260508144021 | 12 | 150 | 4.8 | 8.0 | 0.00 | 0.00 | 0.00 | 53 | 1011.4 |
| 20260508143519 | 13 | 53 | 0.0 | 3.2 | 0.00 | 0.00 | 0.00 | 54 | 1011.7 |
| 20260508143015 | 12 | 125 | 1.6 | 4.8 | 0.00 | 0.00 | 0.00 | 54 | 1011.7 |
| 20260508142512 | 12 | 73 | 0.0 | 1.6 | 0.00 | 0.00 | 0.00 | 54 | 1011.7 |
| 20260508142008 | 12 | 44 | 4.8 | 8.0 | 0.00 | 0.00 | 0.00 | 52 | 1011.8 |
| 20260508141505 | 12 | 310 | 3.2 | 3.2 | 0.00 | 0.00 | 0.00 | 54 | 1012.0 |
| 20260508141003 | 12 | 29 | 4.8 | 4.8 | 0.00 | 0.00 | 0.00 | 54 | 1011.8 |
| 20260508140500 | 11 | 86 | 1.6 | 3.2 | 0.00 | 0.00 | 0.00 | 60 | 1011.6 |
| 20260508135955 | 12 | 131 | 0.0 | 1.6 | 0.00 | 0.00 | 0.00 | 61 | 1012.0 |
| 20260508135452 | 12 | 58 | 1.6 | 4.8 | 0.00 | 0.00 | 0.00 | 61 | 1012.1 |
| 20260508134948 | 11 | 119 | 4.8 | 4.8 | 0.00 | 0.00 | 0.00 | 62 | 1011.9 |
| 20260508134439 | 12 | 93 | 0.0 | 0.0 | 0.00 | 0.00 | 0.00 | 60 | 1012.1 |
| 20260508133936 | 11 | 98 | 1.6 | 3.2 | 0.00 | 0.00 | 0.00 | 65 | 1012.1 |
| 20260508133433 | 10 | 46 | 1.6 | 3.2 | 0.00 | 0.00 | 0.00 | 66 | 1012.1 |
| 20260508132930 | 10 | 132 | 1.6 | 8.0 | 0.00 | 0.00 | 0.00 | 68 | 1011.9 |
| 20260508132428 | 11 | 74 | 1.6 | 3.2 | 0.00 | 0.00 | 0.00 | 67 | 1012.0 |
| 20260508131925 | 10 | 146 | 3.2 | 3.2 | 0.00 | 0.00 | 0.00 | 67 | 1011.9 |
| 20260508131420 | 10 | 142 | 1.6 | 1.6 | 0.00 | 0.00 | 0.00 | 68 | 1011.9 |
| 20260508130917 | 10 | 117 | 3.2 | 8.0 | 0.00 | 0.00 | 0.00 | 70 | 1011.9 |
| 20260508130414 | 10 | 96 | 3.2 | 4.8 | 0.00 | 0.00 | 0.00 | 71 | 1012.2 |
| 20260508125910 | 10 | 63 | 0.0 | 1.6 | 0.00 | 0.00 | 0.00 | 72 | 1012.1 |
| 20260508125406 | 9 | 79 | 0.0 | 1.6 | 0.00 | 0.00 | 0.00 | 72 | 1012.0 |
| 20260508124904 | 10 | 77 | 0.0 | 3.2 | 0.00 | 0.00 | 0.00 | 73 | 1012.0 |
| 20260508124401 | 9 | 97 | 1.6 | 4.8 | 0.00 | 0.00 | 0.00 | 74 | 1012.0 |
| 20260508123859 | 8 | 109 | 1.6 | 4.8 | 0.00 | 0.00 | 0.00 | 75 | 1011.9 |
| 20260508123357 | 8 | 124 | 0.0 | 1.6 | 0.00 | 0.00 | 0.00 | 77 | 1012.1 |
| 20260508122853 | 8 | 111 | 0.0 | 1.6 | 0.00 | 0.00 | 0.00 | 78 | 1011.7 |
| 20260508122350 | 8 | 182 | 1.6 | 3.2 | 0.00 | 0.00 | 0.00 | 79 | 1012.0 |
| 20260508121847 | 7 | 105 | 3.2 | 3.2 | 0.00 | 0.00 | 0.00 | 81 | 1011.9 |
| 20260508121346 | 7 | 79 | 1.6 | 1.6 | 0.00 | 0.00 | 0.00 | 83 | 1011.9 |
| 20260508120843 | 7 | 83 | 1.6 | 3.2 | 0.00 | 0.00 | 0.00 | 85 | 1011.8 |
| 20260508120341 | 6 | 123 | 1.6 | 3.2 | 0.00 | 0.00 | 0.00 | 88 | 1011.7 |
| 20260508115838 | 7 | 109 | 1.6 | 3.2 | 0.00 | 0.00 | 0.00 | 90 | 1011.9 |
| 20260508115335 | 6 | 65 | 0.0 | 0.0 | 0.00 | 0.00 | 0.00 | 91 | 1012.0 |
| 20260508114832 | 6 | 117 | 0.0 | 0.0 | 0.00 | 0.00 | 0.00 | 91 | 1011.8 |
| 20260508114329 | 6 | 74 | 0.0 | 0.0 | 0.00 | 0.00 | 0.00 | 92 | 1011.7 |
| 20260508113826 | 5 | 42 | 0.0 | 0.0 | 0.00 | 0.00 | 0.00 | 92 | 1011.6 |
| 20260508113324 | 5 | 41 | 0.0 | 0.0 | 0.00 | 0.00 | 0.00 | 92 | 1011.5 |
| 20260508112820 | 4 | 41 | 0.0 | 0.0 | 0.00 | 0.00 | 0.00 | 92 | 1011.3 |
| 20260508112317 | 3 | 41 | 0.0 | 0.0 | 0.00 | 0.00 | 0.00 | 92 | 1011.6 |
| 20260508111813 | 3 | 41 | 0.0 | 0.0 | 0.00 | 0.00 | 0.00 | 92 | 1011.8 |
| 20260508111311 | 2 | 40 | 0.0 | 0.0 | 0.00 | 0.00 | 0.00 | 92 | 1011.4 |
| 20260508110808 | 2 | 40 | 0.0 | 0.0 | 0.00 | 0.00 | 0.00 | 92 | 1011.2 |
| 20260508110306 | 2 | 36 | 0.0 | 0.0 | 0.00 | 0.00 | 0.00 | 92 | 1011.5 |
| 20260508105805 | 2 | 356 | 0.0 | 0.0 | 0.00 | 0.00 | 0.00 | 92 | 1011.4 |
| 20260508105305 | 2 | 354 | 0.0 | 0.0 | 0.00 | 0.00 | 0.00 | 92 | 1011.6 |
| 20260508104759 | 2 | 354 | 0.0 | 0.0 | 0.00 | 0.00 | 0.00 | 92 | 1011.3 |
| 20260508104256 | 2 | 353 | 0.0 | 0.0 | 0.00 | 0.00 | 0.00 | 92 | 1011.3 |
| 20260508103753 | 2 | 353 | 0.0 | 0.0 | 0.00 | 0.00 | 0.00 | 92 | 1011.1 |
| 20260508103250 | 2 | 353 | 0.0 | 0.0 | 0.00 | 0.00 | 0.00 | 92 | 1011.1 |
| 20260508102747 | 2 | 357 | 0.0 | 0.0 | 0.00 | 0.00 | 0.00 | 92 | 1011.1 |
| 20260508102245 | 2 | 359 | 0.0 | 0.0 | 0.00 | 0.00 | 0.00 | 92 | 1011.2 |
| 20260508101742 | 2 | 0 | 0.0 | 1.6 | 0.00 | 0.00 | 0.00 | 92 | 1011.2 |
| 20260508101240 | 2 | 2 | 0.0 | 0.0 | 0.00 | 0.00 | 0.00 | 91 | 1011.1 |
| 20260508100738 | 2 | 2 | 0.0 | 0.0 | 0.00 | 0.00 | 0.00 | 91 | 1011.1 |
| 20260508100235 | 2 | 2 | 0.0 | 0.0 | 0.00 | 0.00 | 0.00 | 91 | 1011.0 |
| 20260508095731 | 2 | 2 | 0.0 | 0.0 | 0.00 | 0.00 | 0.00 | 91 | 1011.1 |
| 20260508095229 | 2 | 2 | 0.0 | 0.0 | 0.00 | 0.00 | 0.00 | 91 | 1011.2 |
| 20260508094725 | 2 | 2 | 0.0 | 0.0 | 0.00 | 0.00 | 0.00 | 91 | 1011.1 |
| 20260508094222 | 2 | 2 | 0.0 | 0.0 | 0.00 | 0.00 | 0.00 | 91 | 1011.3 |
| 20260508093720 | 3 | 2 | 0.0 | 0.0 | 0.00 | 0.00 | 0.00 | 91 | 1011.1 |
| 20260508093217 | 3 | 2 | 0.0 | 0.0 | 0.00 | 0.00 | 0.00 | 91 | 1011.2 |
| 20260508092714 | 3 | 2 | 0.0 | 0.0 | 0.00 | 0.00 | 0.00 | 91 | 1011.0 |
| 20260508092212 | 3 | 2 | 0.0 | 1.6 | 0.00 | 0.00 | 0.00 | 90 | 1011.1 |
| 20260508091710 | 3 | 2 | 0.0 | 1.6 | 0.00 | 0.00 | 0.00 | 90 | 1011.2 |
| 20260508091207 | 3 | 2 | 0.0 | 0.0 | 0.00 | 0.00 | 0.00 | 90 | 1011.3 |
| 20260508090704 | 3 | 3 | 0.0 | 1.6 | 0.00 | 0.00 | 0.00 | 90 | 1011.1 |
| 20260508090202 | 3 | 3 | 0.0 | 0.0 | 0.00 | 0.00 | 0.00 | 90 | 1011.2 |
| 20260508085657 | 3 | 3 | 0.0 | 0.0 | 0.00 | 0.00 | 0.00 | 89 | 1011.3 |
| 20260508085155 | 3 | 3 | 0.0 | 1.6 | 0.00 | 0.00 | 0.00 | 89 | 1011.3 |
| 20260508084651 | 3 | 3 | 0.0 | 0.0 | 0.00 | 0.00 | 0.00 | 89 | 1011.2 |
| 20260508084148 | 3 | 3 | 0.0 | 0.0 | 0.00 | 0.00 | 0.00 | 89 | 1011.3 |
| 20260508083646 | 3 | 3 | 0.0 | 0.0 | 0.00 | 0.00 | 0.00 | 89 | 1011.3 |
| 20260508083143 | 3 | 3 | 0.0 | 0.0 | 0.00 | 0.00 | 0.00 | 88 | 1011.1 |
| 20260508082638 | 3 | 3 | 0.0 | 0.0 | 0.00 | 0.00 | 0.00 | 88 | 1011.4 |
| 20260508082136 | 3 | 3 | 0.0 | 0.0 | 0.00 | 0.00 | 0.00 | 88 | 1011.5 |
| 20260508081634 | 4 | 3 | 0.0 | 0.0 | 0.00 | 0.00 | 0.00 | 88 | 1011.4 |
| 20260508081129 | 4 | 3 | 0.0 | 0.0 | 0.00 | 0.00 | 0.00 | 87 | 1011.8 |
| 20260508080627 | 5 | 4 | 0.0 | 0.0 | 0.00 | 0.00 | 0.00 | 87 | 1011.5 |
| 20260508080125 | 5 | 3 | 0.0 | 1.6 | 0.00 | 0.00 | 0.00 | 87 | 1011.6 |
| 20260508075620 | 5 | 5 | 0.0 | 0.0 | 0.00 | 0.00 | 0.00 | 86 | 1011.2 |
| 20260508075118 | 5 | 13 | 1.6 | 3.2 | 0.00 | 0.00 | 0.00 | 86 | 1011.4 |
| 20260508074616 | 5 | 152 | 0.0 | 1.6 | 0.00 | 0.00 | 0.00 | 86 | 1011.2 |
| 20260508074113 | 5 | 21 | 1.6 | 1.6 | 0.00 | 0.00 | 0.00 | 85 | 1011.4 |
| 20260508073610 | 5 | 348 | 0.0 | 0.0 | 0.00 | 0.00 | 0.00 | 85 | 1011.5 |
| 20260508073108 | 5 | 348 | 1.6 | 1.6 | 0.00 | 0.00 | 0.00 | 85 | 1011.7 |
| 20260508072603 | 5 | 348 | 0.0 | 0.0 | 0.00 | 0.00 | 0.00 | 84 | 1011.8 |
| 20260508072100 | 6 | 349 | 0.0 | 0.0 | 0.00 | 0.00 | 0.00 | 84 | 1011.6 |
| 20260508071558 | 6 | 349 | 0.0 | 1.6 | 0.00 | 0.00 | 0.00 | 84 | 1011.5 |
| 20260508071056 | 6 | 340 | 1.6 | 1.6 | 0.00 | 0.00 | 0.00 | 84 | 1011.7 |
| 20260508070553 | 6 | 341 | 0.0 | 1.6 | 0.00 | 0.00 | 0.00 | 85 | 1011.7 |
| 20260508070052 | 6 | 344 | 1.6 | 1.6 | 0.00 | 0.00 | 0.00 | 86 | 1011.5 |
| 20260508065549 | 5 | 346 | 1.6 | 3.2 | 0.00 | 0.00 | 0.00 | 87 | 1011.7 |
| 20260508065047 | 5 | 77 | 0.0 | 0.0 | 0.00 | 0.00 | 0.00 | 87 | 1011.5 |
| 20260508064544 | 5 | 77 | 0.0 | 0.0 | 0.00 | 0.00 | 0.00 | 87 | 1011.5 |
| 20260508064042 | 5 | 82 | 0.0 | 0.0 | 0.00 | 0.00 | 0.00 | 87 | 1011.7 |
| 20260508063539 | 5 | 83 | 0.0 | 0.0 | 0.00 | 0.00 | 0.00 | 87 | 1011.5 |
| 20260508063037 | 5 | 83 | 0.0 | 0.0 | 0.00 | 0.00 | 0.00 | 87 | 1011.5 |
| 20260508062534 | 5 | 83 | 0.0 | 0.0 | 0.00 | 0.00 | 0.00 | 87 | 1011.6 |
| 20260508062031 | 5 | 83 | 0.0 | 0.0 | 0.00 | 0.00 | 0.00 | 87 | 1011.3 |
| 20260508061529 | 5 | 82 | 0.0 | 0.0 | 0.00 | 0.00 | 0.00 | 86 | 1011.6 |
| 20260508061025 | 5 | 83 | 0.0 | 0.0 | 0.00 | 0.00 | 0.00 | 86 | 1011.5 |
| 20260508060522 | 5 | 83 | 0.0 | 1.6 | 0.00 | 0.00 | 0.00 | 86 | 1011.6 |
| 20260508060020 | 5 | 93 | 0.0 | 0.0 | 0.00 | 0.00 | 0.00 | 86 | 1011.5 |
| 20260508055515 | 5 | 93 | 0.0 | 0.0 | 0.00 | 0.00 | 0.00 | 85 | 1011.8 |
| 20260508055012 | 5 | 101 | 0.0 | 0.0 | 0.00 | 0.00 | 0.00 | 85 | 1011.7 |
| 20260508054509 | 5 | 124 | 0.0 | 0.0 | 0.00 | 0.00 | 0.00 | 85 | 1011.8 |
| 20260508054006 | 5 | 140 | 1.6 | 1.6 | 0.00 | 0.00 | 0.00 | 84 | 1011.7 |
| 20260508053502 | 5 | 198 | 0.0 | 0.0 | 0.00 | 0.00 | 0.00 | 84 | 1011.5 |
| 20260508053001 | 5 | 198 | 0.0 | 0.0 | 0.00 | 0.00 | 0.00 | 83 | 1011.8 |
| 20260508052458 | 5 | 198 | 0.0 | 0.0 | 0.00 | 0.00 | 0.00 | 83 | 1011.7 |
| 20260508051954 | 5 | 198 | 0.0 | 0.0 | 0.00 | 0.00 | 0.00 | 82 | 1011.6 |
| 20260508051449 | 5 | 198 | 0.0 | 1.6 | 0.00 | 0.00 | 0.00 | 81 | 1011.7 |
| 20260508050946 | 5 | 198 | 0.0 | 0.0 | 0.00 | 0.00 | 0.00 | 79 | 1011.8 |
| 20260508050442 | 6 | 186 | 0.0 | 0.0 | 0.00 | 0.00 | 0.00 | 79 | 1011.8 |
| 20260508045939 | 6 | 186 | 0.0 | 0.0 | 0.00 | 0.00 | 0.00 | 78 | 1011.7 |
| 20260508045437 | 6 | 183 | 0.0 | 1.6 | 0.00 | 0.00 | 0.00 | 77 | 1011.8 |
| 20260508044934 | 6 | 353 | 0.0 | 0.0 | 0.00 | 0.00 | 0.00 | 77 | 1011.5 |
| 20260508044431 | 6 | 352 | 0.0 | 0.0 | 0.00 | 0.00 | 0.00 | 76 | 1011.8 |
| 20260508043926 | 7 | 355 | 0.0 | 0.0 | 0.00 | 0.00 | 0.00 | 75 | 1012.0 |
| 20260508043424 | 7 | 357 | 0.0 | 0.0 | 0.00 | 0.00 | 0.00 | 73 | 1011.8 |
| 20260508042919 | 7 | 357 | 0.0 | 0.0 | 0.00 | 0.00 | 0.00 | 71 | 1011.8 |
| 20260508042418 | 8 | 350 | 1.6 | 1.6 | 0.00 | 0.00 | 0.00 | 70 | 1011.8 |
| 20260508041914 | 8 | 329 | 1.6 | 1.6 | 0.00 | 0.00 | 0.00 | 69 | 1011.7 |
| 20260508041411 | 8 | 321 | 1.6 | 1.6 | 0.00 | 0.00 | 0.00 | 68 | 1011.7 |
| 20260508040907 | 8 | 278 | 3.2 | 4.8 | 0.00 | 0.00 | 0.00 | 68 | 1011.8 |
| 20260508040405 | 8 | 281 | 1.6 | 3.2 | 0.00 | 0.00 | 0.00 | 67 | 1011.7 |
| 20260508035903 | 8 | 197 | 3.2 | 4.8 | 0.00 | 0.00 | 0.00 | 67 | 1011.5 |
| 20260508035359 | 8 | 240 | 4.8 | 4.8 | 0.00 | 0.00 | 0.00 | 66 | 1011.4 |
| 20260508034856 | 8 | 240 | 1.6 | 8.0 | 0.00 | 0.00 | 0.00 | 66 | 1011.4 |
| 20260508034354 | 8 | 146 | 0.0 | 1.6 | 0.00 | 0.00 | 0.00 | 67 | 1011.4 |
| 20260508033850 | 8 | 177 | 3.2 | 3.2 | 0.00 | 0.00 | 0.00 | 68 | 1011.4 |
| 20260508033348 | 8 | 158 | 1.6 | 1.6 | 0.00 | 0.00 | 0.00 | 68 | 1011.4 |
| 20260508032846 | 8 | 160 | 1.6 | 3.2 | 0.00 | 0.00 | 0.00 | 67 | 1011.4 |
| 20260508032343 | 7 | 188 | 0.0 | 1.6 | 0.00 | 0.00 | 0.00 | 71 | 1011.5 |
| 20260508031839 | 7 | 145 | 0.0 | 1.6 | 0.00 | 0.00 | 0.00 | 74 | 1011.8 |
| 20260508031336 | 7 | 75 | 0.0 | 0.0 | 0.00 | 0.00 | 0.00 | 73 | 1011.7 |
| 20260508030832 | 8 | 71 | 0.0 | 1.6 | 0.00 | 0.00 | 0.00 | 73 | 1011.8 |
| 20260508030330 | 8 | 73 | 0.0 | 0.0 | 0.00 | 0.00 | 0.00 | 72 | 1012.1 |
| 20260508025826 | 8 | 73 | 0.0 | 0.0 | 0.00 | 0.00 | 0.00 | 71 | 1012.2 |
| 20260508025324 | 8 | 73 | 0.0 | 0.0 | 0.00 | 0.00 | 0.00 | 70 | 1012.1 |
| 20260508024821 | 8 | 73 | 0.0 | 0.0 | 0.00 | 0.00 | 0.00 | 69 | 1012.0 |
| 20260508024317 | 8 | 73 | 0.0 | 0.0 | 0.00 | 0.00 | 0.00 | 68 | 1012.0 |
| 20260508023814 | 8 | 73 | 0.0 | 0.0 | 0.00 | 0.00 | 0.00 | 66 | 1012.0 |
| 20260508023310 | 8 | 65 | 0.0 | 0.0 | 0.00 | 0.00 | 0.00 | 65 | 1012.0 |
| 20260508022807 | 8 | 65 | 0.0 | 0.0 | 0.00 | 0.00 | 0.00 | 63 | 1011.9 |
| 20260508022306 | 9 | 78 | 1.6 | 1.6 | 0.00 | 0.00 | 0.00 | 63 | 1011.7 |
| 20260508021800 | 9 | 139 | 1.6 | 1.6 | 0.00 | 0.00 | 0.00 | 60 | 1012.1 |
| 20260508021256 | 9 | 315 | 1.6 | 1.6 | 0.00 | 0.00 | 0.00 | 60 | 1011.8 |
| 20260508020752 | 10 | 298 | 1.6 | 4.8 | 0.00 | 0.00 | 0.00 | 58 | 1011.9 |
| 20260508020251 | 10 | 180 | 6.4 | 11.3 | 0.00 | 0.00 | 0.00 | 55 | 1012.1 |
| 20260508015747 | 10 | 217 | 1.6 | 4.8 | 0.00 | 0.00 | 0.00 | 52 | 1012.0 |
| 20260508015244 | 10 | 186 | 0.0 | 4.8 | 0.00 | 0.00 | 0.00 | 52 | 1011.9 |
| 20260508014741 | 10 | 272 | 0.0 | 11.3 | 0.00 | 0.00 | 0.00 | 53 | 1011.9 |
| 20260508014238 | 9 | 261 | 3.2 | 8.0 | 0.00 | 0.00 | 0.00 | 53 | 1011.6 |
| 20260508013734 | 9 | 315 | 0.0 | 0.0 | 0.00 | 0.00 | 0.00 | 55 | 1011.6 |
| 20260508013230 | 9 | 251 | 0.0 | 0.0 | 0.00 | 0.00 | 0.00 | 54 | 1011.5 |
| 20260508012728 | 10 | 250 | 0.0 | 1.6 | 0.00 | 0.00 | 0.00 | 53 | 1011.7 |
| 20260508012225 | 10 | 221 | 0.0 | 1.6 | 0.00 | 0.00 | 0.00 | 52 | 1011.2 |
| 20260508011723 | 9 | 212 | 0.0 | 3.2 | 0.00 | 0.00 | 0.00 | 51 | 1011.0 |
| 20260508011220 | 8 | 292 | 0.0 | 1.6 | 0.00 | 0.00 | 0.00 | 55 | 1011.2 |
| 20260508010716 | 8 | 305 | 1.6 | 3.2 | 0.00 | 0.00 | 0.00 | 57 | 1011.0 |
| 20260508010215 | 9 | 238 | 0.0 | 0.0 | 0.00 | 0.00 | 0.00 | 51 | 1011.0 |
| 20260508005712 | 9 | 237 | 1.6 | 1.6 | 0.00 | 0.00 | 0.00 | 51 | 1011.2 |
| 20260508005208 | 10 | 318 | 0.0 | 0.0 | 0.00 | 0.00 | 0.00 | 51 | 1011.0 |
| 20260508004704 | 10 | 318 | 0.0 | 0.0 | 0.00 | 0.00 | 0.00 | 51 | 1011.0 |
| 20260508004200 | 10 | 318 | 0.0 | 0.0 | 0.00 | 0.00 | 0.00 | 50 | 1010.9 |
| 20260508003657 | 10 | 318 | 0.0 | 0.0 | 0.00 | 0.00 | 0.00 | 47 | 1011.0 |
| 20260508003154 | 10 | 306 | 1.6 | 1.6 | 0.00 | 0.00 | 0.00 | 47 | 1011.0 |
| 20260508002650 | 11 | 336 | 1.6 | 3.2 | 0.00 | 0.00 | 0.00 | 46 | 1011.2 |
| 20260508002149 | 11 | 270 | 6.4 | 9.7 | 0.00 | 0.00 | 0.00 | 45 | 1011.4 |
| 20260508001643 | 11 | 344 | 4.8 | 9.7 | 0.00 | 0.00 | 0.00 | 46 | 1011.1 |
| 20260508001140 | 11 | 205 | 8.0 | 12.9 | 0.00 | 0.00 | 0.00 | 47 | 1011.1 |
| 20260508000636 | 11 | 261 | 0.0 | 0.0 | 0.00 | 0.00 | 0.00 | 45 | 1011.0 |
| 20260508000133 | 11 | 233 | 1.6 | 3.2 | 0.00 | 0.00 | 0.00 | 44 | 1011.0 |
| 20260507235630 | 11 | 294 | 0.0 | 1.6 | 0.00 | 0.00 | 0.00 | 45 | 1010.7 |
| 20260507235128 | 11 | 307 | 3.2 | 4.8 | 0.00 | 0.00 | 0.00 | 43 | 1011.3 |
| 20260507234624 | 11 | 276 | 4.8 | 9.7 | 0.00 | 0.00 | 0.00 | 42 | 1011.0 |
| 20260507234120 | 11 | 248 | 1.6 | 3.2 | 0.00 | 0.00 | 0.00 | 43 | 1010.8 |
| 20260507233617 | 11 | 289 | 1.6 | 4.8 | 0.00 | 0.00 | 0.00 | 43 | 1011.1 |
| 20260507233116 | 11 | 280 | 1.6 | 8.0 | 0.00 | 0.00 | 0.00 | 43 | 1010.9 |
| 20260507232612 | 11 | 309 | 8.0 | 14.5 | 0.00 | 0.00 | 0.00 | 41 | 1011.0 |
| 20260507232110 | 11 | 308 | 6.4 | 11.3 | 0.00 | 0.00 | 0.00 | 41 | 1011.1 |
| 20260507231605 | 11 | 269 | 3.2 | 9.7 | 0.00 | 0.00 | 0.00 | 42 | 1011.0 |